Simultaneous Nadir Overpasses (SNOs) Predictions

Prediction of SNOs between GOES-16 and AQUA Satellite Orbit:

Table of predicted SNOs for the next 14.0 days since TLE Epoch: 8/6/2022
Index Date Time (GOES-16) GOES-16 Lat,Lon AQUA Lat,Lon Distance(km) Time Diff (sec)
1 08/07/2022 18:30:36 -0.03, -75.20 0.56, -72.48 309.70 80
2 08/08/2022 06:51:44 0.03, -75.20 0.54, -77.60 272.83 80
3 08/10/2022 06:36:26 -0.02, -75.21 -0.16, -74.54 76.54 80
4 08/12/2022 06:23:47 -0.01, -75.22 -0.81, -71.46 427.87 80
5 08/12/2022 18:45:04 0.01, -75.22 -0.31, -76.61 158.50 80
6 08/14/2022 18:35:05 0.01, -75.25 0.35, -73.54 194.25 80
7 08/15/2022 06:56:13 -0.01, -75.26 0.75, -78.66 387.34 80
8 08/17/2022 06:43:34 -0.00, -75.29 0.08, -75.58 33.78 80
9 08/19/2022 06:28:15 -0.00, -75.33 -0.59, -72.51 320.38 80
10 08/19/2022 18:49:32 0.01, -75.33 -0.50, -77.67 265.47 80
